Portada
METAR-TAF:

METAR-TAF

Aeropuertos :

Aeródromo de Teruel

Teruel, España

latitud: 40-24-43N, longitud: 01-13-03W, altitud: 1030 m

Observación

El informe se hizo hace 12 minutos, a las 02:00 UTC
Viento 6 kt del sureste
Temperatura 2°C
Humedad 100%
Presión 1021 hPa
Visibilidad: 3300 m
Escasas nubes a una altura de 800 ft
Nubes dispersas a una altura de 4500 ft
neblina

METAR: LETL 240200Z AUTO 14006KT 3300 BR FEW008 SCT045 02/02 Q1021

Hora: 03:12 (02:12 UTC)


TAF: falta

Observaciones y pronósticos meteorológicos de más de 4000 aeropuertos (mensajes METAR y TAF).

Los puntos amarillos y rojos representan las estaciones disponibles.

Ponga el ratón en el punto deseado para ver el nombre de la estación.

Haga clic para ver las observaciones y los pronósticos meteorológicos.

Para cambiar el mapa : haga clic en los botones verdes con una cruz de color negro para hacer un zoom, en el botón verde con un guión para alejar o en las flechas verdes para mapas adyacentes.


METAR-TAF: